M8FSI-13 Weather Reports


time (UTC)temp
C
wind
direction
speed
KPH
gust
KPH
rain 1hr
cm
rain 24hr
cm
rain mn
cm
humidity
%
barometer
mb
20260510140518 11 45 11.3 20.9 0.03 0.20 0.20 81 1015.6
20260510135540 11 45 8.0 20.9 0.03 0.20 0.20 82 1015.7
20260510134537 11 45 9.7 20.9 0.03 0.20 0.20 82 1015.8
20260510133533 11 45 8.0 19.3 0.03 0.20 0.20 82 1015.9
20260510132525 11 90 8.0 16.1 0.00 0.18 0.18 82 1015.9
20260510131520 11 45 8.0 14.5 0.00 0.18 0.18 81 1015.9
20260510130522 11 45 9.7 16.1 0.03 0.18 0.18 81 1015.9
20260510125518 11 45 9.7 17.7 0.05 0.18 0.18 82 1015.9
20260510124533 11 45 6.4 14.5 0.08 0.18 0.18 83 1015.9
20260510123604 11 293 4.8 17.7 0.13 0.18 0.18 83 1015.6
20260510122558 11 23 6.4 19.3 0.13 0.18 0.18 84 1015.5
20260510121539 11 315 4.8 12.9 0.13 0.18 0.18 84 1015.7
20260510120520 11 45 6.4 19.3 0.10 0.15 0.15 83 1016.0
20260510115616 11 45 6.4 16.1 0.08 0.13 0.13 82 1016.3
20260510114536 11 45 3.2 16.1 0.05 0.10 0.10 82 1016.4
20260510113541 11 45 4.8 22.5 0.05 0.05 0.05 80 1016.5
20260510112534 11 45 6.4 12.9 0.05 0.05 0.05 79 1016.6
20260510111540 11 45 9.7 24.1 0.05 0.05 0.05 77 1016.6
20260510110520 11 45 12.9 22.5 0.05 0.05 0.05 77 1016.4
20260510105519 11 68 8.0 20.9 0.03 0.05 0.05 78 1016.7
20260510104520 11 23 6.4 14.5 0.05 0.05 0.05 78 1016.8
20260510103609 11 45 9.7 24.1 0.03 0.03 0.03 77 1016.9
20260510102540 11 45 9.7 17.7 0.03 0.03 0.03 78 1016.8
20260510101519 11 68 6.4 17.7 0.03 0.03 0.03 79 1016.8
20260510100620 11 68 8.0 14.5 0.03 0.03 0.03 79 1016.9
20260510095521 11 68 8.0 14.5 0.03 0.03 0.03 79 1016.9
20260510094520 11 45 6.4 17.7 0.00 0.00 0.00 78 1016.6
20260510093540 11 23 8.0 24.1 0.00 0.00 0.00 76 1016.6
20260510092540 11 45 9.7 22.5 0.00 0.00 0.00 75 1016.6
20260510091549 11 45 8.0 20.9 0.00 0.00 0.00 75 1016.7
20260510090519 11 45 9.7 25.7 0.00 0.00 0.00 74 1016.7
20260510085520 11 45 11.3 27.4 0.00 0.00 0.00 74 1016.8
20260510084540 11 45 14.5 29.0 0.00 0.00 0.00 73 1016.9
20260510083600 11 45 14.5 27.4 0.00 0.00 0.00 73 1016.7
20260510082520 11 45 14.5 25.7 0.00 0.00 0.00 73 1016.7
20260510081520 11 45 12.9 22.5 0.00 0.00 0.00 72 1016.7
20260510080539 11 45 12.9 24.1 0.00 0.00 0.00 72 1016.6
20260510075534 11 45 11.3 27.4 0.00 0.00 0.00 72 1016.7
20260510074540 11 45 9.7 24.1 0.00 0.00 0.00 73 1016.6
20260510073558 11 68 9.7 20.9 0.00 0.00 0.00 73 1016.6
20260510072521 11 45 11.3 20.9 0.00 0.00 0.00 74 1016.7
20260510071520 11 68 9.7 20.9 0.00 0.00 0.00 75 1016.8
20260510070549 11 45 4.8 12.9 0.00 0.00 0.00 75 1016.9
20260510065519 11 68 4.8 12.9 0.00 0.00 0.00 75 1017.0
20260510064521 11 45 4.8 8.0 0.00 0.00 0.00 76 1017.0
20260510063555 10 23 3.2 9.7 0.00 0.00 0.00 76 1017.2
20260510062519 10 45 4.8 14.5 0.00 0.00 0.00 76 1017.2
20260510061521 10 45 4.8 14.5 0.00 0.00 0.00 76 1017.2
20260510060520 10 45 4.8 14.5 0.00 0.00 0.00 76 1017.3
20260510055534 10 23 3.2 9.7 0.00 0.00 0.00 76 1017.2
20260510054549 10 45 8.0 14.5 0.00 0.00 0.00 75 1017.2
20260510053559 10 45 8.0 19.3 0.00 0.00 0.00 75 1017.3
20260510052535 10 45 9.7 19.3 0.00 0.00 0.00 76 1017.2
20260510051534 10 45 6.4 14.5 0.00 0.00 0.00 75 1017.0
20260510050549 10 45 6.4 17.7 0.00 0.00 0.00 75 1017.1
20260510045519 10 45 4.8 12.9 0.00 0.00 0.00 75 1017.1
20260510044536 10 45 6.4 14.5 0.00 0.00 0.00 75 1017.0
20260510043520 10 45 8.0 17.7 0.00 0.00 0.00 75 1016.9
20260510042534 10 23 8.0 20.9 0.00 0.00 0.00 74 1017.1
20260510041520 10 23 3.2 8.0 0.00 0.00 0.00 74 1016.9
20260510040534 11 315 4.8 14.5 0.00 0.00 0.00 73 1017.0
20260510035535 11 45 6.4 19.3 0.00 0.00 0.00 73 1016.9
20260510034520 11 45 6.4 14.5 0.00 0.00 0.00 72 1016.9
20260510033554 11 45 6.4 16.1 0.00 0.00 0.00 71 1017.0
20260510032534 11 45 4.8 17.7 0.00 0.00 0.00 71 1017.2
20260510031519 11 45 8.0 20.9 0.00 0.00 0.00 71 1017.2
20260510030600 11 45 9.7 17.7 0.00 0.00 0.00 70 1017.2
20260510025548 11 45 6.4 14.5 0.00 0.00 0.00 69 1017.2
20260510024520 11 45 9.7 16.1 0.00 0.00 0.00 70 1017.2
20260510023535 11 45 9.7 24.1 0.00 0.00 0.00 70 1017.1
20260510022535 11 45 11.3 22.5 0.00 0.00 0.00 69 1017.2
20260510021520 11 68 8.0 14.5 0.00 0.00 0.00 69 1017.3
20260510020534 11 45 8.0 16.1 0.00 0.00 0.00 68 1017.3
20260510015520 12 45 9.7 16.1 0.00 0.00 0.00 66 1017.3
20260510014519 12 45 6.4 11.3 0.00 0.00 0.00 65 1017.4
20260510013521 12 68 6.4 12.9 0.00 0.00 0.00 64 1017.5
20260510012520 12 45 6.4 11.3 0.00 0.00 0.00 63 1017.4
20260510011519 12 68 6.4 12.9 0.00 0.00 0.00 62 1017.4
20260510010535 12 45 4.8 9.7 0.00 0.00 0.00 60 1017.5
20260510005520 12 68 6.4 17.7 0.00 0.00 0.00 59 1017.5
20260510004519 12 68 6.4 16.1 0.00 0.00 0.00 58 1017.4
20260510003540 12 68 8.0 17.7 0.00 0.00 0.00 58 1017.3
20260510002519 12 68 8.0 17.7 0.00 0.00 0.00 59 1017.3
20260510001534 12 68 6.4 16.1 0.00 0.00 0.00 58 1017.5
20260510000520 13 90 9.7 19.3 0.00 0.00 0.00 57 1017.4
20260509235554 13 68 6.4 17.7 0.00 0.00 0.00 56 1017.1
20260509234520 13 68 8.0 17.7 0.00 0.00 0.00 55 1016.9
20260509233520 13 68 8.0 14.5 0.00 0.00 0.00 54 1017.1
20260509232534 13 68 8.0 16.1 0.00 0.00 0.00 52 1017.0
20260509231540 13 45 9.7 17.7 0.00 0.00 0.00 51 1017.2
20260509230539 13 68 9.7 17.7 0.00 0.00 0.00 50 1017.1
20260509225519 13 68 9.7 17.7 0.00 0.00 0.00 49 1017.1
20260509224548 13 68 11.3 17.7 0.00 0.00 0.00 48 1017.1
20260509223519 13 68 11.3 20.9 0.00 0.00 0.00 47 1017.1
20260509222520 13 45 9.7 17.7 0.00 0.00 0.00 46 1017.0
20260509221520 13 45 9.7 17.7 0.00 0.00 0.00 45 1017.0
20260509220518 14 68 12.9 22.5 0.00 0.00 0.00 44 1017.0
20260509215539 14 68 14.5 25.7 0.00 0.00 0.00 43 1016.9
20260509214518 14 45 11.3 22.5 0.00 0.00 0.00 43 1016.9
20260509213619 14 45 11.3 20.9 0.00 0.00 0.00 44 1017.0
20260509212519 14 45 11.3 22.5 0.00 0.00 0.00 44 1016.9
20260509211518 15 45 8.0 19.3 0.00 0.00 0.00 44 1017.1
20260509210539 15 45 11.3 19.3 0.00 0.00 0.00 45 1017.0
20260509205533 15 45 9.7 24.1 0.00 0.00 0.00 45 1016.9
20260509204518 15 45 11.3 27.4 0.00 0.00 0.00 45 1016.8
20260509203518 15 45 11.3 24.1 0.00 0.00 0.00 45 1016.6
20260509202534 15 45 12.9 25.7 0.00 0.00 0.00 44 1016.5
20260509201535 15 45 12.9 20.9 0.00 0.00 0.00 42 1016.5
20260509200554 16 45 11.3 22.5 0.00 0.00 0.00 40 1016.4
20260509195518 16 45 12.9 27.4 0.00 0.00 0.00 41 1016.4
20260509194533 16 45 8.0 16.1 0.00 0.00 0.00 48 1016.3
20260509193554 16 45 8.0 14.5 0.00 0.00 0.00 50 1016.3
20260509192520 16 45 8.0 12.9 0.00 0.00 0.00 51 1016.5
20260509191554 16 45 4.8 12.9 0.00 0.00 0.00 51 1016.5
20260509190518 17 45 6.4 16.1 0.00 0.00 0.00 51 1016.4
20260509185518 17 45 9.7 19.3 0.00 0.00 0.00 50 1016.2
20260509184557 17 45 8.0 14.5 0.00 0.00 0.00 50 1016.1
20260509183518 17 45 8.0 11.3 0.00 0.00 0.00 50 1016.0
20260509182558 18 45 8.0 14.5 0.00 0.00 0.00 50 1016.0
20260509181518 18 68 8.0 19.3 0.00 0.00 0.00 49 1016.2
20260509180553 18 68 8.0 12.9 0.00 0.00 0.00 49 1016.0
20260509175533 18 68 9.7 22.5 0.00 0.00 0.00 49 1015.8
20260509174538 19 68 9.7 19.3 0.00 0.00 0.00 48 1015.9
20260509173538 19 68 9.7 19.3 0.00 0.00 0.00 48 1015.9
20260509172602 20 68 9.7 17.7 0.00 0.00 0.00 47 1015.7
20260509171553 20 68 8.0 17.7 0.00 0.00 0.00 47 1015.6
20260509170536 20 68 9.7 16.1 0.00 0.00 0.00 45 1015.5
20260509165518 20 68 9.7 22.5 0.00 0.00 0.00 44 1015.4
20260509164520 20 68 8.0 17.7 0.00 0.00 0.00 45 1015.5
20260509163521 20 68 9.7 17.7 0.00 0.00 0.00 45 1015.5
20260509162538 20 68 3.2 8.0 0.00 0.00 0.00 46 1015.5
20260509161536 20 68 6.4 14.5 0.00 0.00 0.00 43 1015.6
20260509160521 21 90 8.0 12.9 0.00 0.00 0.00 44 1015.5
20260509155519 20 90 6.4 16.1 0.00 0.00 0.00 46 1015.5
20260509154520 20 135 11.3 16.1 0.00 0.00 0.00 46 1015.6
20260509153539 21 113 16.1 22.5 0.00 0.00 0.00 46 1015.9
20260509152518 20 135 16.1 24.1 0.00 0.00 0.00 45 1015.9
20260509151518 20 113 16.1 20.9 0.00 0.00 0.00 47 1016.2
20260509150518 20 113 14.5 20.9 0.00 0.00 0.00 47 1016.2
20260509145539 20 113 16.1 20.9 0.00 0.00 0.00 49 1016.5
20260509144518 20 113 19.3 27.4 0.00 0.00 0.00 47 1016.7
20260509143520 20 135 17.7 24.1 0.00 0.00 0.00 48 1016.5
20260509142520 20 113 19.3 27.4 0.00 0.00 0.00 47 1016.4
20260509141520 20 113 16.1 20.9 0.00 0.00 0.00 49 1016.4
20260509140541 20 113 14.5 20.9 0.00 0.00 0.00 49 1016.4